FW2365 Weather Reports


Display with metric or nautical units.
time (UTC)temp
F
wind
direction
speed
MPH
gust
MPH
rain 1hr
in
rain 24hr
in
rain mn
in
humidity
%
barometer
mb
20260831033033 61 318 1.0 3.0 0.11 0.34 0.34 96 1020.1
20260831032526 61 318 0.0 0.0 0.11 0.34 0.34 95 1020.1
20260831032026 61 318 0.0 2.0 0.11 0.34 0.34 95 1019.9
20260831031525 61 174 0.0 4.0 0.10 0.33 0.33 95 1020.0
20260831031025 61 150 0.0 4.0 0.09 0.32 0.32 95 1020.1
20260831030525 61 209 1.0 3.0 0.07 0.30 0.30 95 1020.0
20260831030026 61 282 0.0 6.0 0.06 0.28 0.28 95 1019.8
20260831025525 61 297 1.0 4.0 0.06 0.28 0.28 95 1019.9
20260831025025 61 288 2.0 4.0 0.02 0.24 0.24 95 1019.4
20260831024525 61 162 0.0 0.0 0.00 0.23 0.23 95 1019.1
20260831024024 61 162 0.0 0.0 0.00 0.23 0.23 95 1019.0
20260831023523 61 162 0.0 0.0 0.00 0.23 0.23 95 1019.0
20260831023026 61 162 0.0 0.0 0.01 0.23 0.23 95 1019.0
20260831022524 61 162 0.0 0.0 0.02 0.23 0.23 95 1019.1
20260831022024 61 162 0.0 0.0 0.04 0.23 0.23 95 1019.0
20260831021523 61 162 0.0 0.0 0.04 0.23 0.23 94 1019.0
20260831021023 61 162 0.0 0.0 0.04 0.23 0.23 94 1018.9
20260831020522 61 162 0.0 2.0 0.04 0.23 0.23 94 1018.9
20260831020023 61 162 0.0 2.0 0.04 0.23 0.23 94 1019.0
20260831015522 61 162 0.0 0.0 0.04 0.23 0.23 94 1019.0
20260831015022 61 162 0.0 0.0 0.04 0.23 0.23 94 1019.0
20260831014522 61 162 0.0 0.0 0.04 0.23 0.23 94 1018.9
20260831014022 61 162 0.0 0.0 0.04 0.23 0.23 94 1018.8
20260831013525 61 162 0.0 0.0 0.04 0.23 0.23 94 1018.7
20260831013021 62 162 0.0 3.0 0.03 0.22 0.22 94 1018.9
20260831012521 61 162 1.0 5.0 0.02 0.20 0.20 93 1018.9
20260831012019 61 161 3.0 5.0 0.00 0.19 0.19 94 1019.0
20260831011518 61 172 1.0 3.0 0.00 0.19 0.19 94 1019.3
20260831011017 61 176 2.0 3.0 0.00 0.19 0.19 94 1019.4
20260831010516 61 177 1.0 3.0 0.00 0.19 0.19 94 1019.5
20260831010017 61 177 1.0 3.0 0.00 0.19 0.19 94 1019.5
20260831005516 62 177 1.0 3.0 0.00 0.19 0.19 94 1019.5
20260831005019 62 224 0.0 3.0 0.01 0.19 0.19 93 1019.6
20260831004516 62 282 0.0 4.0 0.01 0.19 0.19 93 1019.6
20260831004019 62 289 0.0 4.0 0.01 0.19 0.19 93 1019.6
20260831003518 62 174 0.0 2.0 0.01 0.19 0.19 92 1019.6
20260831003014 62 174 0.0 2.0 0.01 0.19 0.19 93 1019.5
20260831002514 62 174 0.0 2.0 0.01 0.19 0.19 93 1019.5
20260831002014 62 174 0.0 5.0 0.01 0.19 0.19 93 1019.5
20260831001514 62 174 1.0 5.0 0.01 0.19 0.19 93 1019.6
20260831001013 62 161 1.0 4.0 0.01 0.19 0.19 93 1019.7
20260831000613 62 96 0.0 0.0 0.01 0.19 0.19 92 1019.7
20260831000013 62 96 0.0 0.0 0.02 0.19 0.19 92 1019.7
20260830235513 62 95 0.0 0.0 0.13 0.19 0.19 92 1019.6
20260830235012 62 95 0.0 0.0 0.17 0.18 0.18 92 1019.6
20260830234513 62 95 0.0 0.0 0.18 0.18 0.18 92 1019.6
20260830234011 62 95 0.0 0.0 0.18 0.18 0.18 93 1019.6
20260830233509 62 95 0.0 2.0 0.18 0.18 0.18 92 1019.8
20260830233009 62 95 0.0 2.0 0.18 0.18 0.18 92 1020.0
20260830232508 62 95 0.0 0.0 0.18 0.18 0.18 91 1020.0
20260830232008 63 95 0.0 3.0 0.18 0.18 0.18 90 1019.9
20260830231507 63 180 0.0 3.0 0.18 0.18 0.18 89 1019.9
20260830231005 63 182 2.0 5.0 0.18 0.18 0.18 88 1020.0
20260830230504 64 253 0.0 8.0 0.18 0.18 0.18 85 1020.0
20260830230006 65 275 4.0 8.0 0.15 0.15 0.15 83 1020.1
20260830225502 66 166 0.0 8.0 0.05 0.05 0.05 82 1020.3
20260830225001 66 230 2.0 11.0 0.00 0.00 0.00 80 1020.2
20260830224600 66 292 4.0 12.0 0.00 0.00 0.00 80 1020.1
20260830224058 65 255 4.0 12.0 0.00 0.00 0.00 80 1020.2
20260830223602 65 277 1.0 4.0 0.00 0.00 0.00 80 1020.0
20260830223058 65 304 0.0 1.0 0.00 0.00 0.00 80 1019.9
20260830222558 65 304 0.0 1.0 0.00 0.00 0.00 81 1019.9
20260830222058 65 304 0.0 3.0 0.00 0.00 0.00 81 1020.0
20260830221557 65 304 0.0 4.0 0.00 0.00 0.00 81 1020.0
20260830221057 64 304 2.0 4.0 0.00 0.00 0.00 82 1019.9
20260830220553 65 304 0.0 0.0 0.00 0.00 0.00 82 1019.8
20260830220057 65 304 0.0 0.0 0.00 0.00 0.00 82 1019.8
20260830215555 65 304 0.0 0.0 0.00 0.00 0.00 82 1019.7
20260830215053 65 304 0.0 0.0 0.00 0.00 0.00 80 1019.7
20260830214613 65 304 0.0 0.0 0.00 0.00 0.00 80 1019.7
20260830214052 65 304 0.0 0.0 0.00 0.00 0.00 81 1019.8
20260830213551 65 304 0.0 0.0 0.00 0.00 0.00 81 1019.8
20260830213051 65 304 0.0 0.0 0.00 0.00 0.00 81 1019.6
20260830212551 65 304 0.0 0.0 0.00 0.00 0.00 81 1019.6
20260830212051 65 304 0.0 0.0 0.00 0.00 0.00 81 1019.7
20260830211555 65 304 0.0 0.0 0.00 0.00 0.00 80 1019.6
20260830211050 65 304 0.0 0.0 0.00 0.00 0.00 80 1019.4
20260830210551 65 304 0.0 0.0 0.00 0.00 0.00 80 1019.3
20260830210052 65 304 0.0 0.0 0.00 0.00 0.00 81 1019.3
20260830205550 65 304 0.0 0.0 0.00 0.00 0.00 81 1019.3
20260830205050 66 304 0.0 0.0 0.00 0.00 0.00 81 1019.4
20260830204550 66 304 0.0 0.0 0.00 0.00 0.00 81 1019.3
20260830204053 66 304 0.0 0.0 0.00 0.00 0.00 80 1019.4
20260830203554 66 304 0.0 0.0 0.00 0.00 0.00 78 1019.4
20260830203052 66 304 0.0 0.0 0.00 0.00 0.00 78 1019.5
20260830202552 66 304 0.0 0.0 0.00 0.00 0.00 77 1019.4
20260830202048 66 304 0.0 0.0 0.00 0.00 0.00 76 1019.4
20260830201549 67 304 0.0 0.0 0.00 0.00 0.00 74 1019.5
20260830201049 67 304 0.0 0.0 0.00 0.00 0.00 73 1019.4
20260830200548 67 304 0.0 0.0 0.00 0.00 0.00 73 1019.4
20260830200059 67 304 0.0 0.0 0.00 0.00 0.00 74 1019.4
20260830195550 67 304 0.0 0.0 0.00 0.00 0.00 74 1019.3
20260830195048 67 304 0.0 0.0 0.00 0.00 0.00 74 1019.3
20260830194555 67 304 0.0 0.0 0.00 0.00 0.00 75 1019.3
20260830194049 67 304 0.0 0.0 0.00 0.00 0.00 76 1019.4
20260830193547 67 304 0.0 0.0 0.00 0.00 0.00 76 1019.5
20260830193119 67 173 0.0 0.0 0.00 0.00 0.00 72 1019.4
20260830192547 68 173 0.0 2.0 0.00 0.00 0.00 73 1019.3
20260830192047 68 173 0.0 5.0 0.00 0.00 0.00 72 1019.2
20260830191547 68 156 0.0 7.0 0.00 0.00 0.00 72 1019.2
20260830191049 69 281 2.0 7.0 0.00 0.00 0.00 72 1019.1
20260830190547 70 230 2.0 10.0 0.00 0.00 0.00 69 1019.1
20260830190047 71 260 4.0 10.0 0.00 0.00 0.00 67 1019.1
20260830185548 72 276 5.0 10.0 0.00 0.00 0.00 62 1019.1
20260830185047 72 274 4.0 8.0 0.00 0.00 0.00 60 1019.0
20260830184547 73 288 2.0 8.0 0.00 0.00 0.00 58 1019.0
20260830184046 73 280 3.0 6.0 0.00 0.00 0.00 58 1018.9
20260830183546 73 269 2.0 8.0 0.00 0.00 0.00 56 1018.8
20260830183046 74 330 2.0 8.0 0.00 0.00 0.00 55 1018.7
20260830182546 74 290 4.0 12.0 0.00 0.00 0.00 55 1018.7
20260830182046 74 284 7.0 12.0 0.00 0.00 0.00 55 1018.6
20260830181546 73 278 5.0 10.0 0.00 0.00 0.00 56 1018.6
20260830181048 73 270 4.0 13.0 0.00 0.00 0.00 56 1018.5
20260830180545 73 269 6.0 13.0 0.00 0.00 0.00 57 1018.4
20260830180046 73 280 5.0 12.0 0.00 0.00 0.00 57 1018.3
20260830175545 74 285 3.0 12.0 0.00 0.00 0.00 56 1018.2
20260830175045 74 280 6.0 15.0 0.00 0.00 0.00 55 1018.1
20260830174550 74 290 7.0 15.0 0.00 0.00 0.00 56 1018.1
20260830174045 74 265 6.0 13.0 0.00 0.00 0.00 56 1018.1
20260830173544 74 277 7.0 13.0 0.00 0.00 0.00 56 1018.0
20260830173103 74 281 7.0 12.0 0.00 0.00 0.00 57 1017.9
20260830172543 74 304 7.0 12.0 0.00 0.00 0.00 56 1017.8
20260830172043 74 279 4.0 15.0 0.00 0.00 0.00 57 1017.9
20260830171543 74 288 7.0 15.0 0.00 0.00 0.00 57 1017.8
20260830171043 74 264 7.0 13.0 0.00 0.00 0.00 57 1017.8
20260830170544 74 280 7.0 13.0 0.00 0.00 0.00 56 1017.8
20260830170044 74 215 6.0 14.0 0.00 0.00 0.00 56 1017.8
20260830165543 74 296 7.0 14.0 0.00 0.00 0.00 56 1017.8
20260830165043 74 216 5.0 13.0 0.00 0.00 0.00 57 1017.7
20260830164543 74 278 6.0 13.0 0.00 0.00 0.00 56 1017.7
20260830164043 74 277 8.0 14.0 0.00 0.00 0.00 57 1017.6
20260830163542 74 255 8.0 14.0 0.00 0.00 0.00 56 1017.7
20260830163043 74 270 6.0 13.0 0.00 0.00 0.00 57 1017.6
20260830162542 75 294 6.0 13.0 0.00 0.00 0.00 56 1017.6
20260830162042 75 64 3.0 13.0 0.00 0.00 0.00 56 1017.5
20260830161541 75 304 4.0 11.0 0.00 0.00 0.00 57 1017.6
20260830161044 75 295 5.0 11.0 0.00 0.00 0.00 56 1017.5
20260830160544 75 297 3.0 9.0 0.00 0.00 0.00 56 1017.5
20260830160040 75 281 3.0 12.0 0.00 0.00 0.00 56 1017.5
20260830155540 75 250 5.0 12.0 0.00 0.00 0.00 56 1017.6
20260830155044 76 280 4.0 13.0 0.00 0.00 0.00 56 1017.6
20260830154540 76 291 5.0 13.0 0.00 0.00 0.00 56 1017.6
20260830154039 76 281 6.0 12.0 0.00 0.00 0.00 56 1017.6
20260830153539 76 282 5.0 12.0 0.00 0.00 0.00 56 1017.5
20260830153039 76 277 6.0 12.0 0.00 0.00 0.00 56 1017.5
20260830152539 76 243 3.0 12.0 0.00 0.00 0.00 56 1017.5
20260830152038 76 322 5.0 12.0 0.00 0.00 0.00 55 1017.6
20260830151538 76 287 6.0 14.0 0.00 0.00 0.00 54 1017.5
20260830151038 76 269 7.0 14.0 0.00 0.00 0.00 54 1017.6
20260830150538 77 208 5.0 12.0 0.00 0.00 0.00 55 1017.6
20260830150043 77 285 4.0 10.0 0.00 0.00 0.00 54 1017.6
20260830145537 77 278 4.0 11.0 0.00 0.00 0.00 53 1017.6
20260830145037 77 304 5.0 11.0 0.00 0.00 0.00 52 1017.6
20260830144539 77 304 2.0 10.0 0.00 0.00 0.00 53 1017.6
20260830144041 78 265 2.0 11.0 0.00 0.00 0.00 51 1017.5
20260830143536 78 282 4.0 12.0 0.00 0.00 0.00 51 1017.5
20260830143041 78 294 6.0 12.0 0.00 0.00 0.00 50 1017.6
20260830142537 79 293 4.0 8.0 0.00 0.00 0.00 52 1017.6
20260830142035 79 286 2.0 8.0 0.00 0.00 0.00 52 1017.7
20260830141536 78 295 3.0 8.0 0.00 0.00 0.00 51 1017.6
20260830141034 78 255 4.0 8.0 0.00 0.00 0.00 51 1017.7
20260830140538 78 290 5.0 10.0 0.00 0.00 0.00 49 1017.7
20260830140034 78 283 6.0 10.0 0.00 0.00 0.00 51 1017.7
20260830135535 78 276 5.0 9.0 0.00 0.00 0.00 50 1017.7
20260830135035 78 280 4.0 9.0 0.00 0.00 0.00 51 1017.9
20260830134533 78 318 5.0 10.0 0.00 0.00 0.00 50 1017.8
20260830134033 78 274 5.0 10.0 0.00 0.00 0.00 48 1017.9
20260830133531 78 276 4.0 10.0 0.00 0.00 0.00 50 1017.9
20260830133033 78 289 4.0 10.0 0.00 0.00 0.00 49 1017.9
20260830132530 78 254 3.0 10.0 0.00 0.00 0.00 50 1018.0
20260830132030 79 275 5.0 10.0 0.00 0.00 0.00 49 1018.1
20260830131534 79 295 5.0 9.0 0.00 0.00 0.00 49 1018.2
20260830131029 79 285 4.0 9.0 0.00 0.00 0.00 49 1018.2
20260830130527 79 304 5.0 9.0 0.00 0.00 0.00 47 1018.3
20260830130027 79 304 3.0 6.0 0.00 0.00 0.00 48 1018.3
20260830125527 78 283 3.0 6.0 0.00 0.00 0.00 47 1018.4
20260830125033 78 314 3.0 6.0 0.00 0.00 0.00 48 1018.4
20260830124536 78 309 2.0 6.0 0.00 0.00 0.00 49 1018.4
20260830124025 78 289 3.0 8.0 0.00 0.00 0.00 48 1018.5
20260830123524 78 290 4.0 9.0 0.00 0.00 0.00 50 1018.6
20260830123023 78 286 5.0 8.0 0.00 0.00 0.00 48 1018.6
20260830122521 78 309 2.0 9.0 0.00 0.00 0.00 51 1018.7
20260830122021 77 295 4.0 9.0 0.00 0.00 0.00 50 1018.7
20260830121519 77 304 4.0 8.0 0.00 0.00 0.00 54 1018.8
20260830121018 77 304 4.0 8.0 0.00 0.00 0.00 53 1018.8
20260830120518 77 322 4.0 9.0 0.00 0.00 0.00 54 1018.9
20260830120017 77 289 4.0 9.0 0.00 0.00 0.00 53 1018.9
20260830115516 76 293 3.0 9.0 0.00 0.00 0.00 52 1019.0
20260830115015 76 309 5.0 9.0 0.00 0.00 0.00 54 1019.0
20260830114514 76 314 5.0 10.0 0.00 0.00 0.00 56 1019.0
20260830114014 76 314 6.0 10.0 0.00 0.00 0.00 54 1019.1
20260830113512 76 288 4.0 9.0 0.00 0.00 0.00 55 1019.2
20260830113011 75 314 5.0 10.0 0.00 0.00 0.00 55 1019.3
20260830112510 75 304 7.0 11.0 0.00 0.00 0.00 57 1019.3
20260830112011 75 299 6.0 11.0 0.00 0.00 0.00 56 1019.3
20260830111509 75 309 5.0 9.0 0.00 0.00 0.00 55 1019.4
20260830111009 75 281 3.0 9.0 0.00 0.00 0.00 56 1019.5
20260830110508 75 304 3.0 9.0 0.00 0.00 0.00 57 1019.5
20260830110007 74 304 3.0 10.0 0.00 0.00 0.00 58 1019.6
20260830105506 74 309 3.0 10.0 0.00 0.00 0.00 57 1019.7
20260830105005 74 309 5.0 8.0 0.00 0.00 0.00 59 1019.7
20260830104504 74 309 4.0 8.0 0.00 0.00 0.00 61 1019.8
20260830104006 74 298 5.0 9.0 0.00 0.00 0.00 59 1019.9
20260830103502 74 280 4.0 8.0 0.00 0.00 0.00 59 1020.0
20260830103002 74 309 3.0 8.0 0.00 0.00 0.00 58 1020.0
20260830102600 75 318 5.0 8.0 0.00 0.00 0.00 61 1020.1
20260830102100 75 320 2.0 4.0 0.00 0.00 0.00 58 1020.3
20260830101558 75 320 0.0 4.0 0.00 0.00 0.00 56 1020.3
20260830101057 74 309 2.0 4.0 0.00 0.00 0.00 63 1020.4
20260830100558 74 292 1.0 5.0 0.00 0.00 0.00 58 1020.4
20260830100100 74 124 2.0 5.0 0.00 0.00 0.00 60 1020.5
20260830095556 74 124 0.0 3.0 0.00 0.00 0.00 56 1020.6
20260830095051 73 124 1.0 3.0 0.00 0.00 0.00 58 1020.7
20260830094550 73 120 0.0 2.0 0.00 0.00 0.00 58 1020.8
20260830094049 73 120 0.0 3.0 0.00 0.00 0.00 58 1020.9
20260830093547 73 122 0.0 3.0 0.00 0.00 0.00 58 1021.0
20260830093057 72 124 2.0 3.0 0.00 0.00 0.00 60 1021.1
20260830092544 72 124 1.0 3.0 0.00 0.00 0.00 62 1021.1
20260830092045 72 136 0.0 2.0 0.00 0.00 0.00 61 1021.3
20260830091542 72 136 0.0 3.0 0.00 0.00 0.00 61 1021.3
20260830091041 71 136 2.0 3.0 0.00 0.00 0.00 60 1021.4
20260830090539 71 127 1.0 3.0 0.00 0.00 0.00 60 1021.4
20260830090038 71 74 0.0 2.0 0.00 0.00 0.00 63 1021.4
20260830085537 71 337 0.0 3.0 0.00 0.00 0.00 68 1021.5
20260830085039 70 337 0.0 3.0 0.00 0.00 0.00 66 1021.6
20260830084534 70 127 0.0 2.0 0.00 0.00 0.00 65 1021.5
20260830084033 70 127 0.0 3.0 0.00 0.00 0.00 64 1021.6
20260830083531 69 127 1.0 3.0 0.00 0.00 0.00 67 1021.6
20260830083030 69 127 0.0 3.0 0.00 0.00 0.00 65 1021.7
20260830082527 69 122 0.0 1.0 0.00 0.00 0.00 67 1021.8
20260830082026 68 122 0.0 3.0 0.00 0.00 0.00 66 1021.7
20260830081525 68 122 0.0 3.0 0.00 0.00 0.00 68 1021.8
20260830081024 68 122 0.0 3.0 0.00 0.00 0.00 70 1021.8
20260830080523 68 122 0.0 3.0 0.00 0.00 0.00 71 1021.8
20260830080025 68 122 0.0 3.0 0.00 0.00 0.00 71 1021.9
20260830075520 68 153 0.0 2.0 0.00 0.00 0.00 71 1021.9
20260830075018 67 158 0.0 2.0 0.00 0.00 0.00 71 1022.0
20260830074521 67 158 1.0 2.0 0.00 0.00 0.00 71 1021.9
20260830074019 67 158 0.0 2.0 0.00 0.00 0.00 72 1022.0
20260830073514 67 158 0.0 2.0 0.00 0.00 0.00 72 1022.0
20260830073013 66 158 0.0 0.0 0.00 0.00 0.00 74 1022.0
20260830072512 66 158 0.0 2.0 0.00 0.00 0.00 73 1022.0
20260830072011 66 158 0.0 2.0 0.00 0.00 0.00 76 1022.0
20260830071510 66 158 0.0 2.0 0.00 0.00 0.00 77 1022.0
20260830071010 65 158 0.0 2.0 0.00 0.00 0.00 75 1022.0
20260830070506 65 158 0.0 2.0 0.00 0.00 0.00 77 1022.0
20260830070007 65 158 0.0 1.0 0.00 0.00 0.00 76 1022.1
20260830065504 65 158 0.0 0.0 0.00 0.00 0.00 78 1022.1
20260830065002 64 158 0.0 0.0 0.00 0.00 0.00 76 1022.0
20260830064501 64 158 0.0 0.0 0.00 0.00 0.00 77 1022.0
20260830064100 64 158 0.0 0.0 0.00 0.00 0.00 77 1022.1
20260830063600 63 158 0.0 0.0 0.00 0.00 0.00 78 1022.1
20260830063059 63 158 0.0 0.0 0.00 0.00 0.00 78 1022.1
20260830062603 63 158 0.0 0.0 0.00 0.00 0.00 80 1022.1
20260830062056 62 158 0.0 0.0 0.00 0.00 0.00 79 1022.1
20260830061559 62 158 0.0 0.0 0.00 0.00 0.00 78 1022.0
20260830061053 61 158 0.0 0.0 0.00 0.00 0.00 82 1022.0
20260830060552 61 158 0.0 0.0 0.00 0.00 0.00 81 1022.0
20260830060055 61 158 0.0 0.0 0.00 0.00 0.00 81 1022.0
20260830055550 60 158 0.0 0.0 0.00 0.00 0.00 84 1022.0
20260830055049 59 158 0.0 0.0 0.00 0.00 0.00 84 1022.1
20260830054549 59 158 0.0 3.0 0.00 0.00 0.00 85 1022.0
20260830054047 58 157 1.0 3.0 0.00 0.00 0.00 85 1021.9
20260830053546 58 158 0.0 0.0 0.00 0.00 0.00 88 1021.9
20260830053045 58 158 0.0 0.0 0.00 0.00 0.00 87 1021.9
20260830052545 58 158 0.0 0.0 0.00 0.00 0.00 86 1022.0
20260830052045 58 158 0.0 0.0 0.00 0.00 0.00 87 1022.0
20260830051547 58 158 0.0 0.0 0.00 0.00 0.00 85 1022.0
20260830051044 57 162 0.0 0.0 0.00 0.00 0.00 86 1022.0
20260830050543 57 160 0.0 0.0 0.00 0.00 0.00 87 1022.0
20260830050043 57 160 0.0 0.0 0.00 0.00 0.00 88 1021.9
20260830045542 56 165 0.0 0.0 0.00 0.00 0.00 88 1021.8
20260830045043 56 165 0.0 0.0 0.00 0.00 0.00 88 1021.8
20260830044605 56 165 0.0 0.0 0.00 0.00 0.00 88 1021.8
20260830044039 57 165 0.0 0.0 0.00 0.00 0.00 87 1021.9
20260830043538 57 165 0.0 0.0 0.00 0.00 0.00 86 1021.9
20260830043038 57 165 0.0 0.0 0.00 0.00 0.00 86 1021.9
20260830042538 56 165 0.0 0.0 0.00 0.00 0.00 87 1021.9
20260830042038 56 165 0.0 0.0 0.00 0.00 0.00 87 1021.8
20260830041545 56 165 0.0 0.0 0.00 0.00 0.00 87 1021.9
20260830041037 56 165 0.0 0.0 0.00 0.00 0.00 87 1021.9
20260830040536 56 165 0.0 0.0 0.00 0.00 0.00 87 1021.9
20260830040053 57 165 0.0 0.0 0.00 0.00 0.00 87 1021.9
20260830035535 57 165 0.0 0.0 0.00 0.00 0.00 86 1021.8
20260830035040 57 165 0.0 2.0 0.00 0.00 0.00 86 1021.8
20260830034535 57 165 0.0 3.0 0.00 0.00 0.00 86 1021.8
20260830034034 57 165 1.0 3.0 0.00 0.00 0.00 86 1021.8
20260830033534 57 165 0.0 0.0 0.00 0.00 0.00 86 1021.8